[Iaude] MPEC B17: 2013 SQ99 [a=43.97,e=0.10,i=3.5,H=6.4]

mpec at si.edu mpec at si.edu
Wed Jan 18 11:03:26 EST 2017


M.P.E.C. 2017-B17                                Issued 2017 Jan. 18, 15:59 UT
 
     The Minor Planet Electronic Circulars contain information on unusual
         minor planets and routine data on comets.  They are published
    on behalf of Division F of the International Astronomical Union by the
          Minor Planet Center, Smithsonian Astrophysical Observatory,
                          Cambridge, MA 02138, U.S.A.

             Prepared using the Tamkin Foundation Computer Network

                              MPC at CFA.HARVARD.EDU
            URL http://www.minorplanetcenter.net/    ISSN 1523-6714


                                   2013 SQ99
 
Observations:
     K13S99Q @C2013 08 05.49705 00 46 34.182+02 28 52.20         23.1 rqEB017568
     K13S99Q @C2013 08 05.55029 00 46 34.088+02 28 51.34         23.0 rqEB017568
     K13S99Q @C2013 08 08.47594 00 46 28.758+02 28 11.21         23.1 rqEB017568
     K13S99Q @C2013 08 08.51475 00 46 28.679+02 28 10.59         23.1 rqEB017568
     K13S99Q @C2013 08 31.56101 00 45 28.304+02 21 06.94         23.2 rqEB017568
     K13S99Q @C2013 09 01.44658 00 45 25.427+02 20 47.55         22.8 rqEB017568
     K13S99Q @C2013 09 01.48552 00 45 25.297+02 20 46.69         23.1 rqEB017568
     K13S99Q @C2013 09 05.42605 00 45 12.032+02 19 18.02         23.0 rqEB017568
     K13S99Q @C2013 09 05.46492 00 45 11.903+02 19 17.26         22.9 rqEB017568
     K13S99Q*@C2013 09 29.35704 00 43 40.957+02 09 29.84         23.2 rqEB017568
     K13S99Q @C2013 09 29.39589 00 43 40.801+02 09 28.86         23.1 rqEB017568
     K13S99Q @C2013 09 29.43972 00 43 40.623+02 09 27.83         23.1 rqEB017568
     K13S99Q @C2013 10 02.43081 00 43 28.502+02 08 11.79         23.0 rqEB017568
     K13S99Q @C2013 10 02.43568 00 43 28.485+02 08 11.75         23.2 rqEB017568
     K13S99Q @C2013 10 05.31801 00 43 16.787+02 06 58.98         23.0 rqEB017568
     K13S99Q @C2013 10 05.32294 00 43 16.774+02 06 58.65         23.0 rqEB017568
     K13S99Q @C2013 10 05.35570 00 43 16.633+02 06 57.85         22.5 rqEB017568
     K13S99Q @C2013 10 06.36409 00 43 12.537+02 06 32.57         22.9 rqEB017568
     K13S99Q @C2013 10 06.42856 00 43 12.271+02 06 30.94         22.9 rqEB017568
     K13S99Q @C2013 10 07.35091 00 43 08.528+02 06 07.76         22.4 rqEB017568
     K13S99Q @C2013 10 09.48861 00 42 59.858+02 05 14.31         23.0 rqEB017568
     K13S99Q @C2013 11 27.29243 00 40 17.714+01 49 48.15         23.2 rqEB017568
     K13S99Q @C2013 11 27.33867 00 40 17.617+01 49 47.66         23.3 rqEB017568
     K13S99Q @C2014 06 25.60057 00 50 32.508+02 58 59.90         23.2 rqEB017568
     K13S99Q @C2014 06 26.59942 00 50 33.890+02 59 06.07         23.2 rqEB017568
     K13S99Q @C2014 07 23.57151 00 50 42.667+02 58 51.89         23.2 rqEB017568
     K13S99Q @C2014 07 27.55192 00 50 39.296+02 58 20.70         23.1 rqEB017568
     K13S99Q @C2014 08 22.53086 00 49 50.247+02 52 16.83         25.2 uqEB017568
     K13S99Q @C2014 08 22.53512 00 49 50.231+02 52 16.59         25.0 uqEB017568
     K13S99Q @C2014 08 24.49767 00 49 44.814+02 51 39.14         23.3 rqEB017568
     K13S99Q @C2014 08 28.46980 00 49 33.193+02 50 19.73         23.1 rqEB017568
     K13S99Q @C2014 08 29.61851 00 49 29.675+02 49 55.93               qEB017568
     K13S99Q @C2014 10 23.32278 00 46 01.195+02 27 59.26         23.0 rqEB017568
     K13S99Q @C2014 10 23.32666 00 46 01.180+02 27 59.24         23.2 rqEB017568
     K13S99Q @C2014 10 27.28941 00 45 46.146+02 26 30.51         23.2 rqEB017568
     K13S99Q @C2014 10 27.29329 00 45 46.131+02 26 30.39         23.1 rqEB017568
     K13S99Q @C2014 11 24.27113 00 44 18.331+02 18 22.52         23.2 rqEB017568
     K13S99Q @C2014 11 24.27501 00 44 18.315+02 18 22.41         23.3 rqEB017568
     K13S99Q @C2014 11 25.29743 00 44 15.914+02 18 10.32         23.2 rqEB017568
     K13S99Q @C2014 11 25.30131 00 44 15.905+02 18 10.32         23.2 rqEB017568
     K13S99Q @C2014 12 17.33921 00 43 42.080+02 15 50.58         23.3 rqEB017568
     K13S99Q @C2014 12 17.34321 00 43 42.075+02 15 50.85         23.2 rqEB017568
     K13S99Q @C2015 01 17.23338 00 43 58.890+02 19 31.91         23.2 rqEB017568
     K13S99Q @C2015 10 12.27435 00 50 40.620+03 00 31.02         23.0 rqEB017568
     K13S99Q @C2015 10 12.35600 00 50 40.280+03 00 29.00         23.0 rqEB017568
     K13S99Q @C2015 10 12.42687 00 50 39.980+03 00 27.19         23.0 rqEB017568
     K13S99Q @C2015 12 07.39898 00 47 45.169+02 44 10.95         23.2 wqEB017568
     K13S99Q @C2015 12 31.22795 00 47 29.889+02 43 59.12         23.3 wqEB017568
 
Observer details:
568 Mauna Kea.  Observers M. T. Bannister, J. J. Kavelaars, B. J. Gladman,
    J.-M. Petit, T. Burdullis.  Measurers S. D. J. Gwyn, Y.-T. Chen.  3.6-m
    Canada-France-Hawaii Telescope + CCD.
 
Orbital elements:
2013 SQ99
Epoch 2017 Feb. 16.0 TT = JDT 2457800.5                 MPC
M 142.07894              (2000.0)            P               Q
n   0.00338054     Peri.  174.12759     -0.69405306     +0.71834231
a  43.9688547      Node    51.90883     -0.66295900     -0.61190366
e   0.0966812      Incl.    3.47422     -0.28067012     -0.33099582
P 292              H    6.4           G   0.15           U   4
Residuals in seconds of arc
130805 568  0.1-  0.0     131005 568  0.0   0.1-    141023 568  0.1-  0.0
130805 568  0.0   0.2-    131006 568  0.0   0.0     141023 568  0.1-  0.1+
130808 568  0.0   0.0     131006 568  0.0   0.0     141027 568  0.0   0.0
130808 568  0.0   0.0     131007 568  0.1-  0.0     141027 568  0.0   0.0
130831 568  0.0   0.0     131009 568  0.0   0.1-    141124 568  0.1+  0.0
130901 568  0.0   0.0     131127 568  0.1+  0.0     141124 568  0.0   0.1-
130901 568  0.0   0.0     131127 568  0.1+  0.0     141125 568  0.0   0.1-
130905 568  0.1-  0.0     140625 568  0.0   0.1+    141125 568  0.1+  0.0
130905 568  0.0   0.1+    140626 568  0.0   0.1+    141217 568  0.1+  0.2-
130929 568  0.0   0.0     140723 568  0.2+  0.1+    141217 568  0.1+  0.1+
130929 568  0.0   0.0     140727 568  0.1+  0.0     150117 568  0.0   0.0
130929 568  0.1+  0.1+    140822 568  0.1-  0.1+    151012 568  0.1+  0.0
131002 568  0.1-  0.1-    140822 568  0.1-  0.0     151012 568  0.0   0.0
131002 568  0.0   0.0     140824 568  0.0   0.0     151012 568  0.1-  0.0
131005 568  0.0   0.1+    140828 568  0.1-  0.0     151207 568  0.1-  0.0
131005 568  0.1+  0.1-    140829 568  0.0   0.0     151231 568  0.0   0.1-

Ephemeris:
2013 SQ99                a,e,i = 43.97, 0.10, 3                  q = 39.718
Date    TT    R. A. (2000) Decl.     Delta      r     Elong.  Phase     V
2016 12 19    00 51 22.2 +03 11 00  47.1765 47.4533   105.8     1.1    23.3
...
2017 01 03    00 51 20.7 +03 11 45  47.4367 47.4552    90.5     1.2    23.3
...
2017 01 11    00 51 27.5 +03 12 56  47.5768 47.4563    82.4     1.2    23.3
...
2017 01 17    00 51 35.9 +03 14 10  47.6803 47.4571    76.3     1.2    23.3
2017 01 18    00 51 37.5 +03 14 24  47.6973 47.4572    75.3     1.1    23.3
2017 01 19    00 51 39.3 +03 14 38  47.7143 47.4574    74.3     1.1    23.3
...
2017 01 25    00 51 51.4 +03 16 15  47.8142 47.4582    68.2     1.1    23.3
...
2017 02 02    00 52 11.8 +03 18 49  47.9410 47.4592    60.2     1.0    23.3
...
2017 02 17    00 53 01.4 +03 24 45  48.1512 47.4612    45.3     0.8    23.3

A. U. Tomatic                (C) Copyright 2017 MPC           M.P.E.C. 2017-B17




More information about the Iaude mailing list